Location: Dal�� Lhota
(48.7500°N, 14.0167°E)
Time: 22:50:02
(UTC+00:00)

Cosmos 1092 Rocket - Pass Details

Date: 24 September 2020
Orbit: 954 x 995 km, 82.9° (Epoch: 25 October)

Event Time Altitude Azimuth Distance (km) Brightness Sun altitude
Rises 18:48:50 0° 349° (N) 3,649 7.5 -18.9°
Reaches altitude 10° 18:51:19 10° 349° (NNW) 2,702 6.7 -19.3°
Maximum altitude 18:57:30 78° 264° (W) 988 4.1 -20.2°
Drops below altitude 10° 19:03:41 10° 179° (S) 2,707 6.1 -21.1°
Enters shadow 19:04:18 - 179° (S) 2,937 6.3 -21.2°
